Location: Bow
(51.5261°N, 0.0167°W)
Time: 22:49:24
(UTC+00:00)

Terra - Pass Details

Date: 18 September 2020
Orbit: 701 x 703 km, 98.2° (Epoch: 31 October)

Event Time Altitude Azimuth Distance (km) Brightness Sun altitude
Exits shadow 20:18:52 19° 57° (ENE) 1,675 3.5 -20.4°
Maximum altitude 20:18:54 19° 56° (NE) 1,675 3.5 -20.4°
Drops below altitude 10° 20:22:09 10° 13° (NNE) 2,185 4.6 -20.8°
Sets 20:24:59 0° 356° (N) 3,108 5.7 -21.2°
